Regional Weather Roundup
Issued by NWS Mt. Holly, NJ

Home | Current Version | Previous Version | Text Only | Print | Product List | Glossary On
Versions: 1 2 3 4 5 6 7 8 9 10 11 12 13 14 15 16 17 18 19 20 21 22 23 24 25 26 27 28 29 30 31 32 33 34 35 36 37 38 39 40 41 42 43 44 45 46 47 48 49 50
000
ASUS41 KPHI 052112
RWRPHI

REGIONAL WEATHER ROUNDUP
NATIONAL WEATHER SERVICE MOUNT HOLLY NJ
500 PM EDT THU MAY 05 2016

NOTE:  "FAIR" INDICATES FEW OR NO CLOUDS BELOW 12,000 FEET WITH NO
SIGNIFICANT WEATHER AND/OR OBSTRUCTIONS TO VISIBILITY.

 * = STATION DOES NOT REPORT PRECIPITATION (E.G. RAIN, SNOW, ETC.)
        OR FOG.

NJZ015>026-052200-
SOUTHERN NEW JERSEY

CITY           SKY/WX    TMP DP  RH WIND       PRES   REMARKS
POMONA         CLOUDY    53  46  77 N10       29.61S
WILDWOOD*      CLOUDY   N/A N/A N/A N12G17    29.61S
MILLVILLE      CLOUDY    54  45  71 N8        29.61F
WRIGHTSTOWN    CLOUDY    56  46  68 N12       29.60S
MOUNT HOLLY    CLOUDY    56  45  66 NE6       29.62S
TRENTON        CLOUDY    56  45  66 NE8       29.63R

$$
NJZ001>014-052200-
NORTHERN NEW JERSEY

CITY           SKY/WX    TMP DP  RH WIND       PRES   REMARKS
SUSSEX         CLOUDY    56  43  61 NE14      29.65F
ANDOVER*       NOT AVBL
MORRISTOWN     CLOUDY    57  46  67 E9        29.64S
NEWARK         CLOUDY    58  44  60 NE13      29.63S
TETERBORO      CLOUDY    57  42  57 NE10G18   29.63S
CALDWELL       CLOUDY    58  44  60 E10       29.63F
SOMERVILLE     CLOUDY    59  44  57 N6        29.62R
ALLAIRE*       CLOUDY    54  44  69 NE16G22   29.63F
TOMS RIVER*    CLOUDY    54  43  66 NE12      29.63S

$$
PAZ043-044-047-054-055-060>062-066>071-052200-
EASTERN PENNSYLVANIA

CITY           SKY/WX    TMP DP  RH WIND       PRES   REMARKS
PHILADELPHIA   CLOUDY    57  44  62 NE10      29.63F
NORTH PHILA    CLOUDY    58  46  64 NE13G21   29.64S
BLUE BELL*     CLOUDY    54  46  76 CALM      29.62F
DOYLESTOWN     CLOUDY    55  45  68 NE7       29.62S
QUAKERTOWN*    CLOUDY    55  46  71 NE6       29.64F
PERKASIE*      CLOUDY    55  46  71 NE13      29.64S
POTTSTOWN      CLOUDY    57  47  69 NE5       29.64F
LANCASTER      CLOUDY    56  48  74 N7        29.64S
COATESVILLE    CLOUDY    55  50  82 MISG      29.64S
READING        CLOUDY    59  47  64 N7        29.62F
ALLENTOWN      CLOUDY    58  46  64 NE8       29.64S
MOUNT POCONO   CLOUDY    50  42  74 N10       29.64F
HAZLETON       CLOUDY    52  43  71 N7        29.69S
LEHIGHTON      CLOUDY    59  45  58 N7        29.65S
WILKES BARRE   CLOUDY    56  44  64 N9        29.66S

$$
DEZALL-MDZ008-012-015-019-020-052200-
DELAWARE AND EASTERN MARYLAND

CITY           SKY/WX    TMP DP  RH WIND       PRES   REMARKS
WILMINGTON     CLOUDY    56  46  69 N12       29.63S
DOVER          CLOUDY    53  50  92 NE12      29.61S
GEORGETOWN     CLOUDY    52  48  86 NE12      29.62R
EASTON         PTSUNNY  N/A N/A N/A NE10      29.65F
ABERDEEN       CLOUDY    55  48  76 NE9       29.65S
PATUXENT       CLOUDY    54  47  77 N13       29.61S
OCEAN CITY     CLOUDY    51  46  83 NE17G25   29.60S
WALLOPS ISLAND CLOUDY    52  46  80 N15       29.59S
CAMBRIDGE      CLOUDY    52  46  82 N9        29.61S
SALISBURY      CLOUDY    52  48  86 NE12      29.60S

$$
PAZ001-021-NYZ056-072-MDZ011-DCZ001-052200-
OTHER NEARBY LOCATIONS

CITY           SKY/WX    TMP DP  RH WIND       PRES   REMARKS
HARRISBURG     CLOUDY    58  44  60 N9        29.64S
STATE COLLEGE  CLOUDY    57  43  58 NE14G21   29.67R
WILLIAMSPORT   CLOUDY    59  41  51 N12       29.67S
BINGHAMTON     CLOUDY    53  42  66 NE9G17    29.70S
NEW YORK CITY  CLOUDY    56  42  59 NE12G17   29.66S
BALTIMORE      CLOUDY    54  45  71 N9        29.63S
WASHINGTON DC  CLOUDY    57  47  69 NE14      29.63F

$$



USA.gov is the U.S. government's official web portal to all federal, state and local government web resources and services.